Regional Weather Roundup
Issued by NWS Jackson, KY

Home | Current Version | Previous Version | Text Only | Print | Product List | Glossary On
Versions: 1 2 3 4 5 6 7 8 9 10 11 12 13 14 15 16 17 18 19 20 21 22 23 24 25 26 27
000
ASUS43 KJKL 202210
RWRJKL

EAST KENTUCKY HOURLY WEATHER ROUNDUP
NATIONAL WEATHER SERVICE JACKSON KY
500 PM EST SAT JAN 20 2018

NOTE: "FAIR" INDICATES FEW OR NO CLOUDS BELOW 12,000 FEET WITH
NO SIGNIFICANT WEATHER AND/OR OBSTRUCTIONS TO VISIBILITY.

* THESE REPORTS ARE NOT UNDER NWS QUALITY CONTROL AND MAY NOT
  REPORT WEATHER SUCH AS PRECIPITATION AND FOG.

KYZ079-080-083-085-087-088-110-112-115-119-120-202300
...EASTERN KENTUCKY...

CITY           SKY/WX    TMP DP  RH WIND       PRES   REMARKS
JACKSON        CLOUDY    52  38  58 CALM      30.14R
LONDON         CLOUDY    55  37  50 W6        30.16R
SOMERSET*      CLOUDY    54  37  54 W6        30.18R
MONTICELLO*    CLOUDY    56  35  45 W14       30.18R
WILLIAMSBURG*  CLOUDY    57  36  44 W5        30.17R
MIDDLESBORO*   MOCLDY    52  32  47 CALM      30.19R
HARLAN APT*    CLOUDY    50  32  50 CALM      30.18R
PIKE CO APT*   CLOUDY    52  40  63 SW3       30.14S
BIG SANDY APT* CLOUDY    53  40  61 SW8       30.15R
MOREHEAD APT*  CLOUDY    48  36  61 SW9       30.15R
ASHLAND*         N/A     50  34  54 W9        30.13R
$$

KYZ035-036-041-042-044-050-067-078-099-202300
...CENTRAL KENTUCKY...

CITY           SKY/WX    TMP DP  RH WIND       PRES   REMARKS
MT STERLING*   CLOUDY    48  36  61 W3        30.15S
FLEMING/MASON* CLOUDY    44  35  68 SW9       30.14R
DANVILLE*      CLOUDY    50  43  76 W9        30.16R
LEXINGTON      CLOUDY    49  38  65 SW8       30.14R
FRANKFORT      CLOUDY    49  37  63 SW7       30.11S
LOUISVILLE     CLOUDY    51  43  74 SW7       30.12R
LEBANON*       CLOUDY    48  41  76 S12       30.15R
GLASGOW*       CLOUDY    56  39  53 CALM      30.14R
BOWLING GREEN  CLOUDY    56  43  61 S5        30.14R
$$

KYZ091>093-OHZ055-061-077-WVZ005-015-034-035-042-202300
...SOUTHERN OHIO/WEST VIRGINIA...

CITY           SKY/WX    TMP DP  RH WIND       PRES   REMARKS
COLUMBUS       MOCLDY    44  29  55 SW10      30.07R
DAYTON         CLOUDY    43  36  76 SW13      30.06R
WILMINGTON     CLOUDY    41  33  73 SW10      30.07R
HUNTINGTON       N/A     52  34  50 SW6       30.12R
CHARLESTON       N/A     53  37  54 SW15      30.12R
BECKLEY        CLOUDY    46  35  65 W8        30.13R
BLUEFIELD      CLOUDY    46  34  62 W10       30.15R
LOGAN CO APT*  CLOUDY    52  37  58 CALM      30.13R
$$

VAZ002-007-008-TNZ017-027-036-066-071-202300
...SOUTHWEST VIRGINIA/EAST TENNESSEE...

CITY           SKY/WX    TMP DP  RH WIND       PRES   REMARKS
WISE*          CLOUDY    46  36  66 SW5       30.18R
JONESVILLE*      N/A     50  32  50 CALM      30.22R
ABINGDON*      CLOUDY    49  36  61 W6        30.19R
BRISTOL        CLOUDY    51  37  58 W5        30.20R
MORRISTOWN*    PTCLDY    55  34  44 NW5       30.18S
SEVIERVILLE*   PTCLDY    59  39  47 NW6       30.18S
KNOXVILLE      MOCLDY    57  38  48 S8        30.18R
LAFOLLETTE*    CLOUDY    55  32  41 CALM      30.22R
OAK RIDGE        N/A     58  32  37 VRB3      30.20R
CROSSVILLE       N/A     54  35  48 SW3       30.19R
NASHVILLE        N/A     63  31  30 S14       30.14S
$$

...KEY TO REMARKS...
VSB - VISIBILITY IN MILES
WCI - WIND CHILL INDEX
HX  - HEAT INDEX

$$




USA.gov is the U.S. government's official web portal to all federal, state and local government web resources and services.